sat.trackr.live / text

‹ back to catalog

UNKNOWN

NORAD 81652

UNKNOWN UNKNOWN UNKNOWN

§ Identity

Operator
Country
Launch date
Launch site
Launch vehicle
Mass (kg)
RCS (m²)

External: N2YO · Heavens-Above

§ Orbital elements

Epoch: 2026-09-13T19:59:21.967296Z

Period
107.09 min
Inclination
102.1449°
Eccentricity
0.0363510
Mean motion
13.44700019 rev/d
Perigee alt
820.3 km
Apogee alt
1,363.4 km
Semi-major
7,470.0 km
B*
9.2682e-4
RAAN
207.3901°
Arg perigee
103.7909°
Mean anomaly
289.6506°
Rev number
61,562

§ Raw data

UNKNOWN1 81652U          26256.83289314  .00000749  00000+0  92682-3 0  99902 81652 102.1449 207.3901 0363510 103.7909 289.6506 13.44700019615629

JSON: /api/v1/satellites/81652 · /tle

For live sub-satellite position, see the globe view (requires WebGL).

§ Visibility from observer

Set your observer location to see the next 7 days of passes ≥ 10°. The values pass through the URL so the page stays shareable.

No JS? Fill the form by hand. The geolocation button needs JavaScript.